{"data":{"norad_id":54100,"intl_designator":"2022-136BB","name":"STARLINK-5185","alt_names":[],"object_type":"PAYLOAD","status":"ACTIVE","operator":null,"country":"US","launch_date":"2022-10-20","launch_site_code":"AFETR","launch_vehicle":null,"mission":null,"orbit_class":"UNKNOWN","rcs_meters":null,"size_class":null,"mass_kg":null,"dimensions":null,"purposes":["comms"],"wikipedia_slug":null,"has_3d_model":false,"image_url":null,"decayed_at":null,"tle_current":{"epoch":"2026-05-25T00:49:58.806624Z","epoch_age_seconds":69143,"freshness":"FRESH","line1":"1 54100U 22136BB  26145.03470841 -.00000448  00000+0 -10095-4 0  9995","line2":"2 54100  53.2120 351.1042 0001086 127.6178 232.4913 15.08844651198518","mean_motion":15.08844651,"eccentricity":0.0001086,"inclination_deg":53.212,"raan_deg":351.1042,"arg_perigee_deg":127.6178,"mean_anomaly_deg":232.4913,"bstar":-1.0095e-5,"rev_number":19851,"period_min":95.437260492366,"perigee_km":538.97789248792,"apogee_km":540.48045302064,"semimajor_km":6917.8661727543,"source":"CELESTRAK","updated_at":"2026-05-25T13:38:17.657487Z"}}}